Tracking 27419 objects as of 9-Jun-2023
HD Live streaming from Space Station
objects crossing your sky now

DELTA 1 DEB

Track DELTA 1 DEB now!
10-day predictions


NORAD ID: 7180
Int'l Code: 1973-086ER
Perigee: 1,241.0 km
Apogee: 1,471.7 km
Inclination: 102.3 °
Period: 112.7 minutes
Semi major axis: 7727 km
RCS: 0.1012 m2 (medium)
Launch date: November 6, 1973
Source: United States (US)
Launch site: AIR FORCE WESTERN TEST RANGE (AFWTR)

Note: This is SATELLITE DEBRIS
Your satellite tracking list
Your tracking list is empty




NASA's NSSDC Master Catalog

Two Line Element Set (TLE):
1 07180U 73086ER  23159.58884458  .00000474  00000-0  22630-2 0  9990
2 07180 102.2653 159.4306 0149285 167.8853 307.0751 12.78077313299497
Source of the keplerian elements: AFSPC